Time,TemperatureF,DewpointF,PressureIn,WindDirection,WindDirectionDegrees,WindSpeedMPH,WindSpeedGustMPH,Humidity,HourlyPrecipIn,Conditions,Clouds,dailyrainin,SoftwareType,DateUTC
2013-10-14 00:01:00,55.0,45.3,30.28,SSE,157,0.0,0.0,69,0.00,,,0.00,WUHU21623XXSP,2013-10-14 05:01:00,
2013-10-14 00:06:00,54.7,45.1,30.28,SSE,157,0.0,0.0,70,0.00,,,0.00,WUHU21623XXSP,2013-10-14 05:06:00,
2013-10-14 00:11:00,54.7,45.5,30.27,SSE,157,0.0,0.0,71,0.00,,,0.00,WUHU21623XXSP,2013-10-14 05:11:00,
2013-10-14 00:16:00,54.7,45.5,30.27,SSE,157,0.0,0.0,71,0.00,,,0.00,WUHU21623XXSP,2013-10-14 05:16:00,
2013-10-14 00:21:00,54.7,45.5,30.28,SSE,157,0.0,0.0,71,0.00,,,0.00,WUHU21623XXSP,2013-10-14 05:21:00,
2013-10-14 00:26:00,54.7,45.5,30.28,SSE,157,0.0,0.0,71,0.00,,,0.00,WUHU21623XXSP,2013-10-14 05:26:00,
2013-10-14 00:31:00,54.7,45.5,30.28,SSE,157,0.0,0.0,71,0.00,,,0.00,WUHU21623XXSP,2013-10-14 05:31:00,
2013-10-14 00:37:00,54.5,45.7,30.28,SSE,157,0.0,0.0,72,0.00,,,0.00,WUHU21623XXSP,2013-10-14 05:37:00,
2013-10-14 00:42:00,54.5,45.7,30.28,SSE,157,0.0,0.0,72,0.00,,,0.00,WUHU21623XXSP,2013-10-14 05:42:00,
2013-10-14 00:47:00,54.3,45.5,30.28,SSE,157,0.0,0.0,72,0.00,,,0.00,WUHU21623XXSP,2013-10-14 05:47:00,
2013-10-14 00:52:00,54.3,45.5,30.28,SSE,157,0.0,0.0,72,0.00,,,0.00,WUHU21623XXSP,2013-10-14 05:52:00,
2013-10-14 00:57:00,54.1,45.3,30.29,SSE,157,0.0,0.0,72,0.00,,,0.00,WUHU21623XXSP,2013-10-14 05:57:00,
2013-10-14 01:02:00,54.1,45.3,30.28,SSE,157,0.0,0.0,72,0.00,,,0.00,WUHU21623XXSP,2013-10-14 06:02:00,
2013-10-14 01:07:00,53.8,45.3,30.28,SSE,157,0.0,0.0,73,0.00,,,0.00,WUHU21623XXSP,2013-10-14 06:07:00,
2013-10-14 01:12:00,53.8,45.3,30.29,SSE,157,0.0,0.0,74,0.00,,,0.00,WUHU21623XXSP,2013-10-14 06:12:00,
2013-10-14 01:17:00,53.8,45.7,30.28,SSE,157,0.0,0.0,74,0.00,,,0.00,WUHU21623XXSP,2013-10-14 06:17:00,
2013-10-14 01:22:00,53.8,45.7,30.28,SSE,157,0.0,0.0,74,0.00,,,0.00,WUHU21623XXSP,2013-10-14 06:22:00,
2013-10-14 01:27:00,53.8,45.7,30.28,SSE,157,0.0,0.0,74,0.00,,,0.00,WUHU21623XXSP,2013-10-14 06:27:00,
2013-10-14 01:32:00,53.4,45.3,30.28,SSE,157,0.0,0.0,74,0.00,,,0.00,WUHU21623XXSP,2013-10-14 06:32:00,
2013-10-14 01:37:00,53.4,45.3,30.28,SSE,157,0.0,0.0,74,0.00,,,0.00,WUHU21623XXSP,2013-10-14 06:37:00,
2013-10-14 01:42:00,53.4,45.3,30.29,SSE,157,0.0,0.0,74,0.00,,,0.00,WUHU21623XXSP,2013-10-14 06:42:00,
2013-10-14 01:47:00,53.4,45.3,30.29,SSE,157,0.0,0.0,74,0.00,,,0.00,WUHU21623XXSP,2013-10-14 06:47:00,
2013-10-14 01:52:00,53.4,45.3,30.29,SSE,157,0.0,0.0,74,0.00,,,0.00,WUHU21623XXSP,2013-10-14 06:52:00,
2013-10-14 01:57:00,53.4,45.3,30.29,SSE,157,0.0,0.0,74,0.00,,,0.00,WUHU21623XXSP,2013-10-14 06:57:00,
2013-10-14 02:02:00,53.2,45.2,30.29,SSE,157,0.0,0.0,74,0.00,,,0.00,WUHU21623XXSP,2013-10-14 07:02:00,
2013-10-14 02:07:00,52.9,44.8,30.29,SSE,157,0.0,0.0,74,0.00,,,0.00,WUHU21623XXSP,2013-10-14 07:07:00,
2013-10-14 02:12:00,52.7,45.0,30.29,SSE,157,0.0,0.0,75,0.00,,,0.00,WUHU21623XXSP,2013-10-14 07:12:00,
2013-10-14 02:17:00,52.5,44.8,30.29,SSE,157,0.0,0.0,75,0.00,,,0.00,WUHU21623XXSP,2013-10-14 07:17:00,
2013-10-14 02:22:00,52.3,44.8,30.29,SSE,157,0.0,0.0,75,0.00,,,0.00,WUHU21623XXSP,2013-10-14 07:22:00,
2013-10-14 02:27:00,52.3,44.7,30.29,ESE,112,0.0,0.0,75,0.00,,,0.00,WUHU21623XXSP,2013-10-14 07:27:00,
2013-10-14 02:32:00,52.3,44.7,30.29,ESE,112,0.0,0.0,75,0.00,,,0.00,WUHU21623XXSP,2013-10-14 07:32:00,
2013-10-14 02:37:00,52.5,44.8,30.29,SE,135,0.0,0.0,75,0.00,,,0.00,WUHU21623XXSP,2013-10-14 07:37:00,
2013-10-14 02:42:00,52.5,44.8,30.29,SE,135,0.0,0.0,75,0.00,,,0.00,WUHU21623XXSP,2013-10-14 07:42:00,
2013-10-14 02:47:00,52.3,44.7,30.28,SE,135,0.0,0.0,75,0.00,,,0.00,WUHU21623XXSP,2013-10-14 07:47:00,
2013-10-14 02:52:00,52.3,44.7,30.29,SE,135,0.0,0.0,75,0.00,,,0.00,WUHU21623XXSP,2013-10-14 07:52:00,
2013-10-14 02:57:00,52.2,44.7,30.28,SE,135,0.0,0.0,75,0.00,,,0.00,WUHU21623XXSP,2013-10-14 07:57:00,
2013-10-14 03:02:00,52.0,44.3,30.29,SE,135,0.0,0.0,75,0.00,,,0.00,WUHU21623XXSP,2013-10-14 08:02:00,
2013-10-14 03:07:00,51.8,44.5,30.29,SE,135,0.0,0.0,76,0.00,,,0.00,WUHU21623XXSP,2013-10-14 08:07:00,
2013-10-14 03:12:00,51.6,44.3,30.28,SE,135,0.0,0.0,76,0.00,,,0.00,WUHU21623XXSP,2013-10-14 08:12:00,
2013-10-14 03:17:00,51.6,44.3,30.29,SE,135,0.0,0.0,76,0.00,,,0.00,WUHU21623XXSP,2013-10-14 08:17:00,
2013-10-14 03:22:00,51.4,44.5,30.29,SE,135,0.0,0.0,77,0.00,,,0.00,WUHU21623XXSP,2013-10-14 08:22:00,
2013-10-14 03:27:00,51.3,44.3,30.29,SE,135,0.0,0.0,77,0.00,,,0.00,WUHU21623XXSP,2013-10-14 08:27:00,
2013-10-14 03:32:00,51.1,44.1,30.29,SE,135,0.0,0.0,77,0.00,,,0.00,WUHU21623XXSP,2013-10-14 08:32:00,
2013-10-14 03:37:00,51.1,44.1,30.29,SE,135,0.0,0.0,77,0.00,,,0.00,WUHU21623XXSP,2013-10-14 08:37:00,
2013-10-14 03:42:00,51.1,44.1,30.29,SE,135,0.0,0.0,77,0.00,,,0.00,WUHU21623XXSP,2013-10-14 08:42:00,
2013-10-14 03:47:00,50.9,43.9,30.28,SE,135,0.0,0.0,77,0.00,,,0.00,WUHU21623XXSP,2013-10-14 08:47:00,
2013-10-14 03:52:00,50.9,43.9,30.29,SE,135,0.0,0.0,77,0.00,,,0.00,WUHU21623XXSP,2013-10-14 08:52:00,
2013-10-14 03:57:00,50.9,43.9,30.29,SE,135,0.0,0.0,77,0.00,,,0.00,WUHU21623XXSP,2013-10-14 08:57:00,
2013-10-14 04:02:00,50.7,43.8,30.29,SE,135,0.0,0.0,77,0.00,,,0.00,WUHU21623XXSP,2013-10-14 09:02:00,
2013-10-14 04:07:00,50.7,43.8,30.29,SE,135,0.0,0.0,77,0.00,,,0.00,WUHU21623XXSP,2013-10-14 09:07:00,
2013-10-14 04:12:00,50.7,43.8,30.29,SE,135,0.0,0.0,77,0.00,,,0.00,WUHU21623XXSP,2013-10-14 09:12:00,
2013-10-14 04:17:00,50.7,44.1,30.29,SE,135,0.0,0.0,78,0.00,,,0.00,WUHU21623XXSP,2013-10-14 09:17:00,
2013-10-14 04:22:00,50.7,44.1,30.29,SE,135,0.0,0.0,78,0.00,,,0.00,WUHU21623XXSP,2013-10-14 09:22:00,
2013-10-14 04:27:00,50.7,43.8,30.29,SE,135,0.0,0.0,78,0.00,,,0.00,WUHU21623XXSP,2013-10-14 09:27:00,
2013-10-14 04:32:00,50.7,44.1,30.29,SE,135,0.0,0.0,78,0.00,,,0.00,WUHU21623XXSP,2013-10-14 09:32:00,
2013-10-14 04:37:00,50.7,44.1,30.29,SE,135,0.0,0.0,78,0.00,,,0.00,WUHU21623XXSP,2013-10-14 09:37:00,
2013-10-14 04:42:00,50.7,44.1,30.29,SE,135,0.0,0.0,78,0.00,,,0.00,WUHU21623XXSP,2013-10-14 09:42:00,
2013-10-14 04:47:00,50.7,44.1,30.29,SSE,157,0.0,0.0,78,0.00,,,0.00,WUHU21623XXSP,2013-10-14 09:47:00,
2013-10-14 04:52:00,50.7,44.1,30.29,SSE,157,0.0,0.0,78,0.00,,,0.00,WUHU21623XXSP,2013-10-14 09:52:00,
2013-10-14 04:57:00,50.7,44.1,30.29,SSE,157,0.0,0.0,78,0.00,,,0.00,WUHU21623XXSP,2013-10-14 09:57:00,
2013-10-14 05:02:00,50.5,43.9,30.29,SSE,157,0.0,0.0,78,0.00,,,0.00,WUHU21623XXSP,2013-10-14 10:02:00,
2013-10-14 05:07:00,50.5,43.9,30.29,SSE,157,0.0,0.0,78,0.00,,,0.00,WUHU21623XXSP,2013-10-14 10:07:00,
2013-10-14 05:12:00,50.5,43.9,30.29,SSE,157,0.0,0.0,78,0.00,,,0.00,WUHU21623XXSP,2013-10-14 10:12:00,
2013-10-14 05:17:00,50.4,43.7,30.28,SSE,157,0.0,0.0,78,0.00,,,0.00,WUHU21623XXSP,2013-10-14 10:17:00,
2013-10-14 05:22:00,50.2,43.6,30.28,SSE,157,0.0,0.0,78,0.00,,,0.00,WUHU21623XXSP,2013-10-14 10:22:00,
2013-10-14 05:27:00,50.2,43.6,30.28,SSE,157,0.0,0.0,78,0.00,,,0.00,WUHU21623XXSP,2013-10-14 10:27:00,
2013-10-14 05:32:00,49.8,43.2,30.29,SSE,157,0.0,0.0,78,0.00,,,0.00,WUHU21623XXSP,2013-10-14 10:32:00,
2013-10-14 05:37:00,49.8,43.5,30.29,South,180,0.0,0.0,79,0.00,,,0.00,WUHU21623XXSP,2013-10-14 10:37:00,
2013-10-14 05:42:00,49.8,43.5,30.28,South,180,0.0,0.0,79,0.00,,,0.00,WUHU21623XXSP,2013-10-14 10:42:00,
2013-10-14 05:47:00,49.8,43.2,30.28,SSW,202,0.0,0.0,78,0.00,,,0.00,WUHU21623XXSP,2013-10-14 10:47:00,
2013-10-14 05:52:00,50.0,43.4,30.28,SSW,202,0.0,0.0,78,0.00,,,0.00,WUHU21623XXSP,2013-10-14 10:52:00,
2013-10-14 05:57:00,49.8,43.2,30.28,SSW,202,0.0,0.0,78,0.00,,,0.00,WUHU21623XXSP,2013-10-14 10:57:00,
2013-10-14 06:02:00,49.8,43.2,30.28,SSW,202,0.0,0.0,78,0.00,,,0.00,WUHU21623XXSP,2013-10-14 11:02:00,
2013-10-14 06:07:00,49.8,43.2,30.28,SSW,202,0.0,0.0,78,0.00,,,0.00,WUHU21623XXSP,2013-10-14 11:07:00,
2013-10-14 06:12:00,49.8,43.2,30.28,SSW,202,0.0,0.0,78,0.00,,,0.00,WUHU21623XXSP,2013-10-14 11:12:00,
2013-10-14 06:17:00,49.8,43.2,30.28,SSW,202,0.0,0.0,78,0.00,,,0.00,WUHU21623XXSP,2013-10-14 11:17:00,
2013-10-14 06:22:00,49.6,43.0,30.28,SSW,202,0.0,0.0,78,0.00,,,0.00,WUHU21623XXSP,2013-10-14 11:22:00,
2013-10-14 06:27:00,49.6,43.0,30.29,SSW,202,0.0,0.0,78,0.00,,,0.00,WUHU21623XXSP,2013-10-14 11:27:00,
2013-10-14 06:32:00,49.6,43.0,30.29,SSW,202,0.0,0.0,78,0.00,,,0.00,WUHU21623XXSP,2013-10-14 11:32:00,
2013-10-14 06:37:00,49.3,42.7,30.29,SSW,202,0.0,0.0,78,0.00,,,0.00,WUHU21623XXSP,2013-10-14 11:37:00,
2013-10-14 06:42:00,49.3,43.0,30.30,SSW,202,0.0,0.0,79,0.00,,,0.00,WUHU21623XXSP,2013-10-14 11:42:00,
2013-10-14 06:47:00,49.3,43.0,30.30,SSW,202,0.0,0.0,79,0.00,,,0.00,WUHU21623XXSP,2013-10-14 11:47:00,
2013-10-14 06:52:00,49.3,43.0,30.30,SSW,202,0.0,0.0,79,0.00,,,0.00,WUHU21623XXSP,2013-10-14 11:52:00,
2013-10-14 06:57:00,49.1,42.8,30.30,SSW,202,0.0,0.0,79,0.00,,,0.00,WUHU21623XXSP,2013-10-14 11:57:00,
2013-10-14 07:02:00,49.1,43.2,30.30,SSW,202,0.0,0.0,80,0.00,,,0.00,WUHU21623XXSP,2013-10-14 12:02:00,
2013-10-14 07:07:00,49.1,43.2,30.30,SSW,202,0.0,0.0,80,0.00,,,0.00,WUHU21623XXSP,2013-10-14 12:07:00,
2013-10-14 07:12:00,48.9,43.0,30.30,SSW,202,0.0,0.0,80,0.00,,,0.00,WUHU21623XXSP,2013-10-14 12:12:00,
2013-10-14 07:17:00,49.1,43.2,30.30,SSW,202,0.0,0.0,80,0.00,,,0.00,WUHU21623XXSP,2013-10-14 12:17:00,
2013-10-14 07:22:00,49.1,43.5,30.30,SSW,202,0.0,0.0,81,0.00,,,0.00,WUHU21623XXSP,2013-10-14 12:22:00,
2013-10-14 07:27:00,49.1,43.2,30.30,SSW,202,0.0,0.0,80,0.00,,,0.00,WUHU21623XXSP,2013-10-14 12:27:00,
2013-10-14 07:32:00,49.3,43.3,30.30,SSW,202,0.0,0.0,80,0.00,,,0.00,WUHU21623XXSP,2013-10-14 12:32:00,
2013-10-14 07:37:00,49.5,43.8,30.29,South,180,0.0,0.0,81,0.00,,,0.00,WUHU21623XXSP,2013-10-14 12:37:00,
2013-10-14 07:42:00,49.6,43.7,30.29,South,180,0.0,0.0,80,0.00,,,0.00,WUHU21623XXSP,2013-10-14 12:42:00,
2013-10-14 07:47:00,49.8,43.9,30.29,South,180,0.0,0.0,80,0.00,,,0.00,WUHU21623XXSP,2013-10-14 12:47:00,
2013-10-14 07:52:00,50.5,44.3,30.29,South,180,0.0,0.0,79,0.00,,,0.00,WUHU21623XXSP,2013-10-14 12:52:00,
2013-10-14 07:57:00,50.5,44.3,30.29,South,180,0.0,0.0,79,0.00,,,0.00,WUHU21623XXSP,2013-10-14 12:57:00,
2013-10-14 08:03:00,50.9,44.6,30.29,South,180,0.0,0.0,79,0.00,,,0.00,WUHU21623XXSP,2013-10-14 13:03:00,
2013-10-14 08:07:00,51.1,44.8,30.30,South,180,0.0,0.0,79,0.00,,,0.00,WUHU21623XXSP,2013-10-14 13:07:00,
2013-10-14 08:12:00,51.4,44.8,30.30,South,180,0.0,0.0,78,0.00,,,0.00,WUHU21623XXSP,2013-10-14 13:12:00,
2013-10-14 08:17:00,51.6,45.0,30.30,South,180,0.0,0.0,78,0.00,,,0.00,WUHU21623XXSP,2013-10-14 13:17:00,
2013-10-14 08:22:00,51.8,45.2,30.30,South,180,0.0,0.0,78,0.00,,,0.00,WUHU21623XXSP,2013-10-14 13:22:00,
2013-10-14 08:27:00,52.2,45.5,30.30,South,180,0.0,0.0,78,0.00,,,0.00,WUHU21623XXSP,2013-10-14 13:27:00,
2013-10-14 08:32:00,52.5,45.7,30.30,South,180,0.0,0.0,77,0.00,,,0.00,WUHU21623XXSP,2013-10-14 13:32:00,
2013-10-14 08:37:00,52.9,45.5,30.30,SSW,202,0.0,0.0,76,0.00,,,0.00,WUHU21623XXSP,2013-10-14 13:37:00,
2013-10-14 08:42:00,53.2,45.9,30.30,SSW,202,0.0,0.0,76,0.00,,,0.00,WUHU21623XXSP,2013-10-14 13:42:00,
2013-10-14 08:47:00,53.4,46.0,30.30,WSW,247,0.0,0.0,76,0.00,,,0.00,WUHU21623XXSP,2013-10-14 13:47:00,
2013-10-14 08:53:00,53.8,46.4,30.29,SW,225,0.0,0.0,76,0.00,,,0.00,WUHU21623XXSP,2013-10-14 13:53:00,
2013-10-14 08:57:00,54.3,46.2,30.29,South,180,0.0,0.0,74,0.00,,,0.00,WUHU21623XXSP,2013-10-14 13:57:00,
2013-10-14 09:03:00,55.0,46.9,30.29,WSW,247,0.2,0.4,74,0.00,,,0.00,WUHU21623XXSP,2013-10-14 14:03:00,
2013-10-14 09:08:00,55.4,46.9,30.29,SW,225,0.0,0.4,73,0.00,,,0.00,WUHU21623XXSP,2013-10-14 14:08:00,
2013-10-14 09:13:00,56.1,47.2,30.29,SW,225,0.0,0.0,72,0.00,,,0.00,WUHU21623XXSP,2013-10-14 14:13:00,
2013-10-14 09:18:00,56.5,47.5,30.29,SW,225,0.0,0.0,72,0.00,,,0.00,WUHU21623XXSP,2013-10-14 14:18:00,
2013-10-14 09:24:00,57.0,48.0,30.29,WSW,247,0.0,0.0,72,0.00,,,0.00,WUHU21623XXSP,2013-10-14 14:24:00,
2013-10-14 09:29:00,57.6,48.2,30.29,WSW,247,0.0,0.0,71,0.00,,,0.00,WUHU21623XXSP,2013-10-14 14:29:00,
2013-10-14 09:34:00,57.9,48.2,30.29,WSW,247,0.0,0.0,70,0.00,,,0.00,WUHU21623XXSP,2013-10-14 14:34:00,
2013-10-14 09:39:00,58.3,48.1,30.29,SW,225,0.0,0.0,69,0.00,,,0.00,WUHU21623XXSP,2013-10-14 14:39:00,
2013-10-14 09:44:00,58.8,48.7,30.29,West,270,0.0,0.0,69,0.00,,,0.00,WUHU21623XXSP,2013-10-14 14:44:00,
2013-10-14 09:49:00,59.2,48.6,30.29,SW,225,0.0,0.0,68,0.00,,,0.00,WUHU21623XXSP,2013-10-14 14:49:00,
2013-10-14 09:54:00,59.5,48.2,30.29,SW,225,0.0,0.0,66,0.00,,,0.00,WUHU21623XXSP,2013-10-14 14:54:00,
2013-10-14 09:59:00,59.9,48.5,30.29,SSW,202,0.0,0.0,66,0.00,,,0.00,WUHU21623XXSP,2013-10-14 14:59:00,
2013-10-14 10:04:00,60.6,49.2,30.29,SW,225,0.0,0.0,66,0.00,,,0.00,WUHU21623XXSP,2013-10-14 15:04:00,
2013-10-14 10:09:00,61.0,49.2,30.28,SSW,202,0.0,0.0,66,0.00,,,0.00,WUHU21623XXSP,2013-10-14 15:09:00,
2013-10-14 10:15:00,61.3,49.1,30.28,SW,225,0.0,0.0,64,0.00,,,0.00,WUHU21623XXSP,2013-10-14 15:15:00,
2013-10-14 10:20:00,61.5,48.8,30.28,SSW,202,0.0,0.0,63,0.00,,,0.00,WUHU21623XXSP,2013-10-14 15:20:00,
2013-10-14 10:25:00,61.7,49.4,30.28,WSW,247,0.0,0.0,64,0.00,,,0.00,WUHU21623XXSP,2013-10-14 15:25:00,
2013-10-14 10:30:00,62.2,49.9,30.28,SW,225,0.0,0.0,64,0.00,,,0.00,WUHU21623XXSP,2013-10-14 15:30:00,
2013-10-14 10:35:00,62.4,49.6,30.28,SSW,202,0.0,0.0,63,0.00,,,0.00,WUHU21623XXSP,2013-10-14 15:35:00,
2013-10-14 10:40:00,62.8,50.0,30.28,SSW,202,0.0,0.0,63,0.00,,,0.00,WUHU21623XXSP,2013-10-14 15:40:00,
2013-10-14 10:45:00,63.1,50.3,30.28,WSW,247,0.0,3.6,63,0.00,,,0.00,WUHU21623XXSP,2013-10-14 15:45:00,
2013-10-14 10:50:00,63.5,51.1,30.28,WSW,247,0.0,3.6,64,0.00,,,0.00,WUHU21623XXSP,2013-10-14 15:50:00,
2013-10-14 10:55:00,64.0,51.1,30.28,South,180,0.0,0.0,63,0.00,,,0.00,WUHU21623XXSP,2013-10-14 15:55:00,
2013-10-14 11:00:00,64.2,50.9,30.27,SSW,202,0.0,0.0,62,0.00,,,0.00,WUHU21623XXSP,2013-10-14 16:00:00,
2013-10-14 11:05:00,64.8,51.4,30.27,SW,225,0.0,0.0,62,0.00,,,0.00,WUHU21623XXSP,2013-10-14 16:05:00,
2013-10-14 11:10:00,65.1,52.6,30.27,SW,225,0.0,0.0,64,0.00,,,0.00,WUHU21623XXSP,2013-10-14 16:10:00,
2013-10-14 11:15:00,66.0,53.0,30.27,SW,225,0.0,0.0,63,0.00,,,0.00,WUHU21623XXSP,2013-10-14 16:15:00,
2013-10-14 11:20:00,66.4,53.0,30.28,SW,225,0.0,0.0,62,0.00,,,0.00,WUHU21623XXSP,2013-10-14 16:20:00,
2013-10-14 11:25:00,66.6,52.7,30.28,WSW,247,0.0,0.0,61,0.00,,,0.00,WUHU21623XXSP,2013-10-14 16:25:00,
2013-10-14 11:30:00,66.7,53.3,30.27,SSW,202,0.0,0.0,62,0.00,,,0.00,WUHU21623XXSP,2013-10-14 16:30:00,
2013-10-14 11:35:00,66.9,53.3,30.27,WSW,247,0.0,0.0,62,0.00,,,0.00,WUHU21623XXSP,2013-10-14 16:35:00,
2013-10-14 11:40:00,66.9,53.5,30.27,WSW,247,0.0,0.0,62,0.00,,,0.00,WUHU21623XXSP,2013-10-14 16:40:00,
2013-10-14 11:45:00,67.3,53.8,30.27,WSW,247,0.0,0.0,62,0.00,,,0.00,WUHU21623XXSP,2013-10-14 16:45:00,
2013-10-14 11:50:00,67.1,53.2,30.27,SW,225,0.0,0.0,61,0.00,,,0.00,WUHU21623XXSP,2013-10-14 16:50:00,
2013-10-14 11:55:00,67.3,53.4,30.26,WSW,247,0.0,0.0,61,0.00,,,0.00,WUHU21623XXSP,2013-10-14 16:55:00,
2013-10-14 12:00:00,67.6,53.4,30.26,WSW,247,0.0,0.0,62,0.00,,,0.00,WUHU21623XXSP,2013-10-14 17:00:00,
2013-10-14 12:05:00,67.6,54.1,30.26,WSW,247,0.0,0.0,62,0.00,,,0.00,WUHU21623XXSP,2013-10-14 17:05:00,
2013-10-14 12:10:00,67.8,53.9,30.26,WSW,247,0.0,0.0,61,0.00,,,0.00,WUHU21623XXSP,2013-10-14 17:10:00,
2013-10-14 12:15:00,68.2,54.2,30.25,WSW,247,0.0,0.0,61,0.00,,,0.00,WUHU21623XXSP,2013-10-14 17:15:00,
2013-10-14 12:20:00,68.4,54.0,30.25,WSW,247,0.0,0.0,60,0.00,,,0.00,WUHU21623XXSP,2013-10-14 17:20:00,
2013-10-14 12:25:00,68.2,53.8,30.25,WSW,247,0.0,0.0,60,0.00,,,0.00,WUHU21623XXSP,2013-10-14 17:25:00,
2013-10-14 12:30:00,68.7,55.2,30.24,SW,225,0.0,0.0,62,0.00,,,0.00,WUHU21623XXSP,2013-10-14 17:30:00,
2013-10-14 12:35:00,69.1,55.5,30.24,SW,225,0.0,0.0,62,0.00,,,0.00,WUHU21623XXSP,2013-10-14 17:35:00,
2013-10-14 12:40:00,69.6,55.2,30.23,WSW,247,0.0,0.0,60,0.00,,,0.00,WUHU21623XXSP,2013-10-14 17:40:00,
2013-10-14 12:45:00,69.6,55.2,30.23,West,270,0.0,0.0,60,0.00,,,0.00,WUHU21623XXSP,2013-10-14 17:45:00,
2013-10-14 12:50:00,70.0,56.0,30.23,WSW,247,0.0,0.0,61,0.00,,,0.00,WUHU21623XXSP,2013-10-14 17:50:00,
2013-10-14 12:55:00,70.0,55.1,30.22,West,270,0.0,1.8,59,0.00,,,0.00,WUHU21623XXSP,2013-10-14 17:55:00,
2013-10-14 13:00:00,70.0,55.1,30.22,West,270,0.0,1.8,59,0.00,,,0.00,WUHU21623XXSP,2013-10-14 18:00:00,
2013-10-14 13:05:00,70.0,55.6,30.21,WSW,247,0.0,0.0,60,0.00,,,0.00,WUHU21623XXSP,2013-10-14 18:05:00,
2013-10-14 13:10:00,70.0,55.6,30.21,SW,225,0.0,0.0,61,0.00,,,0.00,WUHU21623XXSP,2013-10-14 18:10:00,
2013-10-14 13:15:00,70.5,55.5,30.21,SSW,202,0.0,0.0,59,0.00,,,0.00,WUHU21623XXSP,2013-10-14 18:15:00,
2013-10-14 13:20:00,70.7,56.2,30.21,SE,135,0.0,0.0,60,0.00,,,0.00,WUHU21623XXSP,2013-10-14 18:20:00,
2013-10-14 13:25:00,71.8,57.2,30.21,SW,225,0.0,0.0,60,0.00,,,0.00,WUHU21623XXSP,2013-10-14 18:25:00,
2013-10-14 13:30:00,71.4,56.4,30.21,SW,225,0.0,0.0,59,0.00,,,0.00,WUHU21623XXSP,2013-10-14 18:30:00,
2013-10-14 13:35:00,71.4,56.4,30.22,SSW,202,1.9,3.8,59,0.00,,,0.00,WUHU21623XXSP,2013-10-14 18:35:00,
2013-10-14 13:40:00,71.4,56.4,30.22,SSW,202,0.0,3.8,59,0.00,,,0.00,WUHU21623XXSP,2013-10-14 18:40:00,
2013-10-14 13:45:00,71.2,56.7,30.22,WSW,247,0.0,0.0,60,0.00,,,0.00,WUHU21623XXSP,2013-10-14 18:45:00,
2013-10-14 13:50:00,71.4,56.4,30.22,SW,225,0.0,0.0,59,0.00,,,0.00,WUHU21623XXSP,2013-10-14 18:50:00,
2013-10-14 13:56:00,71.8,56.7,30.22,SW,225,0.0,0.0,59,0.00,,,0.00,WUHU21623XXSP,2013-10-14 18:56:00,
2013-10-14 14:01:00,71.2,57.1,30.21,SW,225,0.0,0.0,61,0.00,,,0.00,WUHU21623XXSP,2013-10-14 19:01:00,
2013-10-14 14:06:00,71.8,57.2,30.20,SW,225,0.0,0.0,60,0.00,,,0.00,WUHU21623XXSP,2013-10-14 19:06:00,
2013-10-14 14:13:00,71.8,56.7,30.20,SW,225,0.0,0.0,59,0.00,,,0.00,WUHU21623XXSP,2013-10-14 19:13:00,
2013-10-14 14:18:00,71.8,56.7,30.19,SW,225,0.0,0.0,59,0.00,,,0.00,WUHU21623XXSP,2013-10-14 19:18:00,
2013-10-14 14:23:00,71.4,56.9,30.19,SW,225,0.0,0.0,60,0.00,,,0.00,WUHU21623XXSP,2013-10-14 19:23:00,
2013-10-14 14:28:00,71.2,56.7,30.19,SW,225,0.0,0.0,60,0.00,,,0.00,WUHU21623XXSP,2013-10-14 19:28:00,
2013-10-14 14:33:00,71.4,56.4,30.18,SSW,202,0.0,0.0,59,0.00,,,0.00,WUHU21623XXSP,2013-10-14 19:33:00,
2013-10-14 14:38:00,71.2,56.2,30.18,WSW,247,0.0,0.0,59,0.00,,,0.00,WUHU21623XXSP,2013-10-14 19:38:00,
2013-10-14 14:43:00,71.2,57.1,30.18,SSW,202,0.0,0.0,61,0.00,,,0.00,WUHU21623XXSP,2013-10-14 19:43:00,
2013-10-14 14:48:00,71.2,56.7,30.18,SW,225,0.0,0.9,60,0.00,,,0.00,WUHU21623XXSP,2013-10-14 19:48:00,
2013-10-14 14:53:00,71.6,57.0,30.18,SSW,202,0.0,1.1,60,0.00,,,0.00,WUHU21623XXSP,2013-10-14 19:53:00,
2013-10-14 14:58:00,71.8,57.2,30.18,SW,225,0.0,1.1,60,0.00,,,0.00,WUHU21623XXSP,2013-10-14 19:58:00,
2013-10-14 15:03:00,71.8,57.2,30.18,SW,225,1.1,2.2,60,0.00,,,0.00,WUHU21623XXSP,2013-10-14 20:03:00,
2013-10-14 15:08:00,72.0,56.8,30.18,SW,225,0.0,2.2,59,0.00,,,0.00,WUHU21623XXSP,2013-10-14 20:08:00,
2013-10-14 15:14:00,72.3,57.7,30.18,SW,225,0.0,0.0,60,0.00,,,0.00,WUHU21623XXSP,2013-10-14 20:14:00,
2013-10-14 15:19:00,72.1,56.5,30.18,SSW,202,0.0,0.0,58,0.00,,,0.00,WUHU21623XXSP,2013-10-14 20:19:00,
2013-10-14 15:26:00,72.1,57.5,30.18,West,270,0.0,0.0,60,0.00,,,0.00,WUHU21623XXSP,2013-10-14 20:26:00,
2013-10-14 15:31:00,72.1,57.5,30.18,SW,225,0.0,0.0,60,0.00,,,0.00,WUHU21623XXSP,2013-10-14 20:31:00,
2013-10-14 15:37:00,72.0,57.3,30.17,SW,225,0.0,0.0,60,0.00,,,0.00,WUHU21623XXSP,2013-10-14 20:37:00,
2013-10-14 15:42:00,72.0,57.3,30.17,SSW,202,0.0,0.0,60,0.00,,,0.00,WUHU21623XXSP,2013-10-14 20:42:00,
2013-10-14 15:46:00,72.1,57.0,30.17,SSW,202,0.0,0.0,59,0.00,,,0.00,WUHU21623XXSP,2013-10-14 20:46:00,
2013-10-14 15:52:00,72.0,56.3,30.17,SW,225,0.0,0.7,58,0.00,,,0.00,WUHU21623XXSP,2013-10-14 20:52:00,
2013-10-14 15:57:00,71.8,56.7,30.17,SW,225,0.0,0.7,59,0.00,,,0.00,WUHU21623XXSP,2013-10-14 20:57:00,
2013-10-14 16:02:00,71.6,56.5,30.17,SW,225,0.0,4.0,59,0.00,,,0.00,WUHU21623XXSP,2013-10-14 21:02:00,
2013-10-14 16:03:00,71.6,56.5,30.17,SW,225,0.0,4.0,59,0.00,,,0.00,WUHU21623XXSP,2013-10-14 21:03:00,
2013-10-14 16:08:00,71.4,56.4,30.17,SSW,202,0.0,4.0,59,0.00,,,0.00,WUHU21623XXSP,2013-10-14 21:08:00,
2013-10-14 16:13:00,71.2,56.2,30.17,SW,225,0.0,0.0,59,0.00,,,0.00,WUHU21623XXSP,2013-10-14 21:13:00,
2013-10-14 16:18:00,71.2,56.2,30.17,WSW,247,0.0,0.0,59,0.00,,,0.00,WUHU21623XXSP,2013-10-14 21:18:00,
2013-10-14 16:23:00,71.2,56.7,30.16,West,270,0.0,0.0,60,0.00,,,0.00,WUHU21623XXSP,2013-10-14 21:23:00,
2013-10-14 16:28:00,70.9,56.4,30.16,WSW,247,0.0,0.0,60,0.00,,,0.00,WUHU21623XXSP,2013-10-14 21:28:00,
2013-10-14 16:33:00,70.5,55.5,30.17,SW,225,0.0,0.0,59,0.00,,,0.00,WUHU21623XXSP,2013-10-14 21:33:00,
2013-10-14 16:38:00,70.3,55.4,30.16,SW,225,0.0,0.0,59,0.00,,,0.00,WUHU21623XXSP,2013-10-14 21:38:00,
2013-10-14 16:43:00,70.3,55.9,30.17,WSW,247,0.0,0.0,60,0.00,,,0.00,WUHU21623XXSP,2013-10-14 21:43:00,
2013-10-14 16:48:00,70.3,55.9,30.16,SW,225,0.2,0.4,60,0.00,,,0.00,WUHU21623XXSP,2013-10-14 21:48:00,
2013-10-14 16:53:00,70.2,56.1,30.16,SW,225,0.0,0.4,61,0.00,,,0.00,WUHU21623XXSP,2013-10-14 21:53:00,
2013-10-14 16:58:00,70.0,56.0,30.16,SW,225,0.0,0.4,61,0.00,,,0.00,WUHU21623XXSP,2013-10-14 21:58:00,
2013-10-14 17:03:00,69.8,56.2,30.16,SW,225,0.0,0.0,62,0.00,,,0.00,WUHU21623XXSP,2013-10-14 22:03:00,
2013-10-14 17:08:00,69.6,56.0,30.16,SW,225,0.0,0.0,62,0.00,,,0.00,WUHU21623XXSP,2013-10-14 22:08:00,
2013-10-14 17:13:00,69.4,55.9,30.16,WSW,247,0.0,0.0,62,0.00,,,0.00,WUHU21623XXSP,2013-10-14 22:13:00,
2013-10-14 17:18:00,69.4,55.9,30.16,WSW,247,0.0,0.0,62,0.00,,,0.00,WUHU21623XXSP,2013-10-14 22:18:00,
2013-10-14 17:23:00,69.3,55.7,30.16,SW,225,0.0,0.0,62,0.00,,,0.00,WUHU21623XXSP,2013-10-14 22:23:00,
2013-10-14 17:28:00,69.3,56.1,30.16,SW,225,0.0,0.0,63,0.00,,,0.00,WUHU21623XXSP,2013-10-14 22:28:00,
2013-10-14 17:33:00,68.9,55.8,30.16,SW,225,0.0,0.0,63,0.00,,,0.00,WUHU21623XXSP,2013-10-14 22:33:00,
2013-10-14 17:38:00,68.5,56.0,30.16,SW,225,0.0,0.0,64,0.00,,,0.00,WUHU21623XXSP,2013-10-14 22:38:00,
2013-10-14 17:43:00,68.4,55.7,30.16,SW,225,0.0,0.0,64,0.00,,,0.00,WUHU21623XXSP,2013-10-14 22:43:00,
2013-10-14 17:48:00,67.8,55.1,30.16,SW,225,0.0,0.0,64,0.00,,,0.00,WUHU21623XXSP,2013-10-14 22:48:00,
2013-10-14 17:53:00,67.8,55.6,30.16,SW,225,0.0,0.0,65,0.00,,,0.00,WUHU21623XXSP,2013-10-14 22:53:00,
2013-10-14 17:59:00,67.3,55.5,30.16,SW,225,0.0,0.0,66,0.00,,,0.00,WUHU21623XXSP,2013-10-14 22:59:00,
2013-10-14 18:04:00,66.9,55.1,30.16,SW,225,0.0,0.0,66,0.00,,,0.00,WUHU21623XXSP,2013-10-14 23:04:00,
2013-10-14 18:09:00,66.6,55.2,30.16,SW,225,0.0,0.0,67,0.00,,,0.00,WUHU21623XXSP,2013-10-14 23:09:00,
2013-10-14 18:14:00,66.2,54.9,30.16,SW,225,0.0,0.0,67,0.00,,,0.00,WUHU21623XXSP,2013-10-14 23:14:00,
2013-10-14 18:19:00,65.8,55.0,30.16,SW,225,0.0,0.0,68,0.00,,,0.00,WUHU21623XXSP,2013-10-14 23:19:00,
2013-10-14 18:24:00,65.5,54.6,30.16,SW,225,0.0,0.0,68,0.00,,,0.00,WUHU21623XXSP,2013-10-14 23:24:00,
2013-10-14 18:29:00,65.3,54.9,30.16,SW,225,0.0,0.0,69,0.00,,,0.00,WUHU21623XXSP,2013-10-14 23:29:00,
2013-10-14 18:34:00,64.8,54.4,30.16,SW,225,0.0,0.0,69,0.00,,,0.00,WUHU21623XXSP,2013-10-14 23:34:00,
2013-10-14 18:39:00,64.6,54.7,30.16,SW,225,0.0,0.0,70,0.00,,,0.00,WUHU21623XXSP,2013-10-14 23:39:00,
2013-10-14 18:44:00,64.2,54.3,30.16,SW,225,0.0,0.0,70,0.00,,,0.00,WUHU21623XXSP,2013-10-14 23:44:00,
2013-10-14 18:51:00,64.0,54.5,30.16,SW,225,0.0,0.0,71,0.00,,,0.00,WUHU21623XXSP,2013-10-14 23:51:00,
2013-10-14 18:56:00,63.7,54.1,30.16,SW,225,0.0,0.0,71,0.00,,,0.00,WUHU21623XXSP,2013-10-14 23:56:00,
2013-10-14 19:01:00,63.3,54.1,30.16,SW,225,0.0,0.0,72,0.00,,,0.00,WUHU21623XXSP,2013-10-15 00:01:00,
2013-10-14 19:06:00,63.1,54.0,30.16,SW,225,0.0,0.0,72,0.00,,,0.00,WUHU21623XXSP,2013-10-15 00:06:00,
2013-10-14 19:13:00,62.8,53.6,30.16,SW,225,0.0,0.0,72,0.00,,,0.00,WUHU21623XXSP,2013-10-15 00:13:00,
2013-10-14 19:18:00,62.8,54.0,30.15,SW,225,0.0,0.0,73,0.00,,,0.00,WUHU21623XXSP,2013-10-15 00:18:00,
2013-10-14 19:23:00,62.8,54.0,30.15,SW,225,0.0,0.0,73,0.00,,,0.00,WUHU21623XXSP,2013-10-15 00:23:00,
2013-10-14 19:28:00,62.8,54.0,30.16,SW,225,0.0,0.0,73,0.00,,,0.00,WUHU21623XXSP,2013-10-15 00:28:00,
2013-10-14 19:34:00,62.4,53.6,30.15,SW,225,0.0,0.0,73,0.00,,,0.00,WUHU21623XXSP,2013-10-15 00:34:00,
2013-10-14 19:39:00,62.4,53.6,30.15,SW,225,0.0,0.0,73,0.00,,,0.00,WUHU21623XXSP,2013-10-15 00:39:00,
2013-10-14 19:44:00,62.4,53.6,30.15,SW,225,0.0,0.0,73,0.00,,,0.00,WUHU21623XXSP,2013-10-15 00:44:00,
2013-10-14 19:49:00,62.4,53.6,30.15,SW,225,0.0,0.0,73,0.00,,,0.00,WUHU21623XXSP,2013-10-15 00:49:00,
2013-10-14 19:55:00,62.4,53.6,30.15,SW,225,0.0,0.0,73,0.00,,,0.00,WUHU21623XXSP,2013-10-15 00:55:00,
2013-10-14 20:00:00,62.4,53.6,30.15,SW,225,0.0,0.0,73,0.00,,,0.00,WUHU21623XXSP,2013-10-15 01:00:00,
2013-10-14 20:05:00,62.2,53.8,30.15,SW,225,0.0,0.0,74,0.00,,,0.00,WUHU21623XXSP,2013-10-15 01:05:00,
2013-10-14 20:10:00,62.2,53.8,30.15,SW,225,0.0,0.0,74,0.00,,,0.00,WUHU21623XXSP,2013-10-15 01:10:00,
2013-10-14 20:16:00,62.2,53.8,30.15,SW,225,0.0,0.0,74,0.00,,,0.00,WUHU21623XXSP,2013-10-15 01:16:00,
2013-10-14 20:21:00,62.1,53.7,30.16,SW,225,0.0,0.0,74,0.00,,,0.00,WUHU21623XXSP,2013-10-15 01:21:00,
2013-10-14 20:26:00,61.9,53.5,30.16,SW,225,0.0,0.0,74,0.00,,,0.00,WUHU21623XXSP,2013-10-15 01:26:00,
2013-10-14 20:31:00,61.7,53.3,30.16,SW,225,0.0,0.0,74,0.00,,,0.00,WUHU21623XXSP,2013-10-15 01:31:00,
2013-10-14 20:37:00,61.5,53.5,30.16,SW,225,0.0,0.0,75,0.00,,,0.00,WUHU21623XXSP,2013-10-15 01:37:00,
2013-10-14 20:42:00,61.5,53.5,30.16,SW,225,0.0,0.0,75,0.00,,,0.00,WUHU21623XXSP,2013-10-15 01:42:00,
2013-10-14 20:47:00,61.3,53.4,30.16,SW,225,0.0,0.0,75,0.00,,,0.00,WUHU21623XXSP,2013-10-15 01:47:00,
2013-10-14 20:52:00,61.3,53.4,30.16,SW,225,0.0,0.0,75,0.00,,,0.00,WUHU21623XXSP,2013-10-15 01:52:00,
2013-10-14 20:57:00,61.2,53.2,30.17,SW,225,0.0,0.0,75,0.00,,,0.00,WUHU21623XXSP,2013-10-15 01:57:00,
2013-10-14 21:03:00,61.0,53.4,30.17,SW,225,0.0,0.0,76,0.00,,,0.00,WUHU21623XXSP,2013-10-15 02:03:00,
2013-10-14 21:08:00,61.0,53.4,30.17,SW,225,0.0,0.0,76,0.00,,,0.00,WUHU21623XXSP,2013-10-15 02:08:00,
2013-10-14 21:13:00,60.6,53.2,30.17,SW,225,0.0,0.0,76,0.00,,,0.00,WUHU21623XXSP,2013-10-15 02:13:00,
2013-10-14 21:18:00,60.6,53.1,30.17,SW,225,0.0,0.0,76,0.00,,,0.00,WUHU21623XXSP,2013-10-15 02:18:00,
2013-10-14 21:23:00,60.6,53.1,30.16,SW,225,0.0,0.0,76,0.00,,,0.00,WUHU21623XXSP,2013-10-15 02:23:00,
2013-10-14 21:28:00,60.6,53.1,30.16,SW,225,0.0,0.0,76,0.00,,,0.00,WUHU21623XXSP,2013-10-15 02:28:00,
2013-10-14 21:33:00,60.6,53.1,30.16,SW,225,0.0,0.0,76,0.00,,,0.00,WUHU21623XXSP,2013-10-15 02:33:00,
2013-10-14 21:38:00,60.4,52.9,30.16,SW,225,0.0,0.0,76,0.00,,,0.00,WUHU21623XXSP,2013-10-15 02:38:00,
2013-10-14 21:43:00,60.4,53.2,30.16,SW,225,0.0,0.0,77,0.00,,,0.00,WUHU21623XXSP,2013-10-15 02:43:00,
2013-10-14 21:48:00,60.4,53.2,30.16,SW,225,0.0,0.0,77,0.00,,,0.00,WUHU21623XXSP,2013-10-15 02:48:00,
2013-10-14 21:53:00,60.1,52.9,30.16,SW,225,0.0,0.0,77,0.00,,,0.00,WUHU21623XXSP,2013-10-15 02:53:00,
2013-10-14 21:58:00,59.9,52.7,30.16,SW,225,0.0,0.0,77,0.00,,,0.00,WUHU21623XXSP,2013-10-15 02:58:00,
2013-10-14 22:03:00,59.7,52.9,30.16,SW,225,0.0,0.0,78,0.00,,,0.00,WUHU21623XXSP,2013-10-15 03:03:00,
2013-10-14 22:08:00,59.7,52.9,30.16,SW,225,0.0,0.0,78,0.00,,,0.00,WUHU21623XXSP,2013-10-15 03:08:00,
2013-10-14 22:13:00,59.7,52.9,30.15,SW,225,0.0,0.0,78,0.00,,,0.00,WUHU21623XXSP,2013-10-15 03:13:00,
2013-10-14 22:18:00,59.7,52.9,30.15,SW,225,0.0,0.0,78,0.00,,,0.00,WUHU21623XXSP,2013-10-15 03:18:00,
2013-10-14 22:23:00,59.7,52.9,30.15,SW,225,0.0,0.0,78,0.00,,,0.00,WUHU21623XXSP,2013-10-15 03:23:00,
2013-10-14 22:29:00,59.9,53.2,30.15,West,270,0.0,0.0,79,0.00,,,0.00,WUHU21623XXSP,2013-10-15 03:29:00,
2013-10-14 22:34:00,60.1,53.2,30.15,West,270,0.0,0.0,78,0.00,,,0.00,WUHU21623XXSP,2013-10-15 03:34:00,
2013-10-14 22:39:00,60.1,53.2,30.15,West,270,0.0,0.0,78,0.00,,,0.00,WUHU21623XXSP,2013-10-15 03:39:00,
2013-10-14 22:44:00,60.1,53.2,30.15,West,270,0.0,0.0,78,0.00,,,0.00,WUHU21623XXSP,2013-10-15 03:44:00,
2013-10-14 22:49:00,60.3,53.4,30.15,WSW,247,0.0,0.0,78,0.00,,,0.00,WUHU21623XXSP,2013-10-15 03:49:00,
2013-10-14 22:54:00,60.4,53.6,30.15,WSW,247,0.0,0.0,78,0.00,,,0.00,WUHU21623XXSP,2013-10-15 03:54:00,
2013-10-14 22:59:00,60.3,53.4,30.15,WSW,247,0.0,0.0,78,0.00,,,0.00,WUHU21623XXSP,2013-10-15 03:59:00,
2013-10-14 23:01:00,60.3,53.4,30.15,WSW,247,0.0,0.0,78,0.00,,,0.00,WUHU21623XXSP,2013-10-15 04:01:00,
2013-10-14 23:02:00,60.1,53.2,30.15,WSW,247,0.0,0.0,78,0.00,,,0.00,WUHU21623XXSP,2013-10-15 04:02:00,
2013-10-14 23:07:00,60.1,53.2,30.15,WSW,247,0.0,0.0,78,0.00,,,0.00,WUHU21623XXSP,2013-10-15 04:07:00,
2013-10-14 23:12:00,60.1,53.6,30.14,West,270,0.0,0.0,79,0.00,,,0.00,WUHU21623XXSP,2013-10-15 04:12:00,
2013-10-14 23:17:00,60.1,53.6,30.14,West,270,0.0,0.0,79,0.00,,,0.00,WUHU21623XXSP,2013-10-15 04:17:00,
2013-10-14 23:22:00,60.3,53.8,30.14,West,270,0.0,0.0,79,0.00,,,0.00,WUHU21623XXSP,2013-10-15 04:22:00,
2013-10-14 23:27:00,60.4,53.8,30.14,WSW,247,0.0,0.0,79,0.00,,,0.00,WUHU21623XXSP,2013-10-15 04:27:00,
2013-10-14 23:33:00,60.4,54.0,30.14,WSW,247,0.0,0.0,79,0.00,,,0.00,WUHU21623XXSP,2013-10-15 04:33:00,
2013-10-14 23:38:00,60.4,54.0,30.14,WSW,247,0.0,0.0,79,0.00,,,0.00,WUHU21623XXSP,2013-10-15 04:38:00,
2013-10-14 23:43:00,60.4,54.0,30.13,WSW,247,0.0,0.0,79,0.00,,,0.00,WUHU21623XXSP,2013-10-15 04:43:00,
2013-10-14 23:48:00,60.4,54.0,30.13,WSW,247,0.0,0.0,79,0.00,,,0.00,WUHU21623XXSP,2013-10-15 04:48:00,
2013-10-14 23:53:00,60.1,53.8,30.13,WSW,247,0.0,0.0,79,0.00,,,0.00,WUHU21623XXSP,2013-10-15 04:53:00,
2013-10-14 23:58:00,60.1,53.6,30.13,WSW,247,0.0,0.0,79,0.00,,,0.00,WUHU21623XXSP,2013-10-15 04:58:00,